Powrót do katalogu

SL-19 DEB

AktywnyUNKNOWN
NORAD 23491·DEBRIS·🇷🇺 Russia

Wystrzelony Dec 26, 1994 z Baikonur Cosmodrome

Loading…

Następne Przeloty (najbliższe 24 godziny)

TLE

ŚwieżeSource: Space-Track

Epoka: Sep 11, 2026, 17:58 UTC

1 23491U 94085P   26254.74896897  .00003229  00000-0  72940-1 0  9991
2 23491  64.8108 264.8647 0367924 227.5669 310.2714 11.37512349313284

Śledź SL-19 DEB w czasie rzeczywistym z AllMySat

Download on the App Store